Location: Unspecified
(40.4572°N, 0.0000°E)
Time: 01:21:20
(UTC+00:00)

CZ-6A DEB - Visible Passes

Search period start: 05 April 2026 00:00
Search period end: 15 April 2026 00:00
Orbit: 765 x 786 km, 89.4° (Epoch: 29 March)

Date Brightness Start Highest point End Pass type
(mag) Time Alt. Az. Time Alt. Az. Time Alt. Az.
5 Apr ? 19:22:07 10° N 19:27:17 58° E 19:32:22 10° SSE visible
5 Apr ? 21:03:57 10° NW 21:07:01 16° WNW 21:10:03 10° WSW visible
6 Apr ? 18:48:32 10° NNE 18:53:07 30° E 18:57:38 10° SE visible
6 Apr ? 20:28:51 10° NNW 20:33:19 30° W 20:37:45 10° SW visible
7 Apr ? 19:54:22 10° N 19:59:29 57° W 20:04:32 10° SSW visible
8 Apr ? 19:20:17 10° N 19:25:30 75° E 19:30:40 10° S visible
8 Apr ? 21:03:00 10° NW 21:05:04 12° WNW 21:07:08 10° W visible
9 Apr ? 20:27:20 10° NNW 20:31:24 24° WNW 20:35:27 10° SW visible
10 Apr ? 19:52:41 10° NNW 19:57:37 45° W 20:02:30 10° SSW visible
11 Apr ? 19:18:27 10° N 19:23:41 87° W 19:28:50 10° S visible
12 Apr ? 20:25:55 10° NNW 20:29:28 19° WNW 20:32:59 10° WSW visible
13 Apr ? 19:51:01 10° NNW 19:55:42 35° W 20:00:21 10° SW visible
14 Apr ? 19:16:38 10° N 19:21:48 69° W 19:26:54 10° SSW visible
